| time (UTC) | temp C | wind direction | speed KPH | gust KPH | rain 1hr cm | rain 24hr cm | rain mn cm | humidity % | barometer mb |
| 20260503034437 | 12 | 180 | 0.0 | 4.8 | 0.00 | 0.00 | 0.00 | 59 | 1008.7 |
| 20260503032937 | 12 | 225 | 3.2 | 3.2 | 0.00 | 0.00 | 0.00 | 60 | 1008.6 |
| 20260503031437 | 11 | 225 | 3.2 | 3.2 | 0.00 | 0.00 | 0.00 | 63 | 1008.6 |
| 20260503025937 | 11 | 225 | 6.4 | 6.4 | 0.00 | 0.00 | 0.00 | 63 | 1008.6 |
| 20260503024437 | 11 | 225 | 4.8 | 4.8 | 0.00 | 0.00 | 0.00 | 62 | 1008.6 |
| 20260503022937 | 11 | 225 | 0.0 | 3.2 | 0.00 | 0.00 | 0.00 | 63 | 1008.6 |
| 20260503021437 | 11 | 225 | 8.0 | 8.0 | 0.00 | 0.00 | 0.00 | 62 | 1008.7 |
| 20260503015937 | 11 | 247 | 0.0 | 1.6 | 0.00 | 0.00 | 0.00 | 63 | 1008.7 |
| 20260503014437 | 10 | 225 | 0.0 | 0.0 | 0.00 | 0.00 | 0.00 | 63 | 1008.8 |
| 20260503012937 | 11 | 225 | 0.0 | 1.6 | 0.00 | 0.00 | 0.00 | 61 | 1008.7 |
| 20260503011438 | 11 | 247 | 0.0 | 1.6 | 0.00 | 0.00 | 0.00 | 61 | 1008.7 |
| 20260503005938 | 11 | 247 | 0.0 | 0.0 | 0.00 | 0.00 | 0.00 | 60 | 1008.9 |
| 20260503004438 | 12 | 225 | 0.0 | 0.0 | 0.00 | 0.00 | 0.00 | 60 | 1009.1 |
| 20260503002938 | 11 | 225 | 0.0 | 3.2 | 0.00 | 0.00 | 0.00 | 62 | 1009.0 |
| 20260503001438 | 10 | 225 | 0.0 | 0.0 | 0.00 | 0.00 | 0.00 | 65 | 1009.0 |
| 20260502235938 | 10 | 225 | 0.0 | 0.0 | 0.00 | 0.00 | 0.00 | 64 | 1009.2 |
| 20260502234438 | 10 | 202 | 0.0 | 0.0 | 0.00 | 0.00 | 0.00 | 64 | 1009.2 |
| 20260502232938 | 10 | 202 | 0.0 | 0.0 | 0.00 | 0.00 | 0.00 | 64 | 1009.3 |
| 20260502231438 | 10 | 225 | 0.0 | 0.0 | 0.00 | 0.00 | 0.00 | 61 | 1009.4 |
| 20260502225938 | 10 | 225 | 0.0 | 0.0 | 0.00 | 0.00 | 0.00 | 60 | 1009.4 |
| 20260502224438 | 10 | 225 | 0.0 | 0.0 | 0.00 | 0.00 | 0.00 | 59 | 1009.5 |
| 20260502222938 | 10 | 225 | 0.0 | 0.0 | 0.00 | 0.00 | 0.00 | 58 | 1009.5 |
| 20260502221438 | 11 | 225 | 0.0 | 0.0 | 0.00 | 0.00 | 0.00 | 55 | 1009.5 |
| 20260502215938 | 11 | 225 | 0.0 | 0.0 | 0.00 | 0.00 | 0.00 | 55 | 1009.5 |
| 20260502214438 | 12 | 225 | 0.0 | 0.0 | 0.00 | 0.00 | 0.00 | 53 | 1009.6 |
| 20260502212938 | 12 | 225 | 0.0 | 0.0 | 0.00 | 0.00 | 0.00 | 53 | 1009.7 |
| 20260502211438 | 12 | 225 | 0.0 | 0.0 | 0.00 | 0.00 | 0.00 | 53 | 1009.6 |
| 20260502205938 | 12 | 247 | 0.0 | 0.0 | 0.00 | 0.00 | 0.00 | 51 | 1009.5 |
| 20260502204438 | 12 | 247 | 0.0 | 0.0 | 0.00 | 0.00 | 0.00 | 51 | 1009.7 |
| 20260502202938 | 12 | 247 | 0.0 | 0.0 | 0.00 | 0.00 | 0.00 | 51 | 1009.6 |
| 20260502201438 | 12 | 247 | 0.0 | 0.0 | 0.00 | 0.00 | 0.00 | 50 | 1009.7 |
| 20260502195938 | 13 | 247 | 0.0 | 0.0 | 0.00 | 0.00 | 0.00 | 47 | 1009.6 |
| 20260502194438 | 14 | 247 | 0.0 | 0.0 | 0.00 | 0.00 | 0.00 | 46 | 1009.8 |
| 20260502192938 | 13 | 225 | 0.0 | 0.0 | 0.00 | 0.00 | 0.00 | 46 | 1009.8 |
| 20260502191438 | 14 | 225 | 0.0 | 0.0 | 0.00 | 0.00 | 0.00 | 44 | 1009.9 |
| 20260502185938 | 15 | 225 | 0.0 | 0.0 | 0.00 | 0.00 | 0.00 | 44 | 1009.8 |
| 20260502184438 | 16 | 225 | 0.0 | 0.0 | 0.00 | 0.00 | 0.00 | 39 | 1009.7 |
| 20260502182938 | 17 | 225 | 0.0 | 0.0 | 0.00 | 0.00 | 0.00 | 37 | 1009.7 |
| 20260502181438 | 18 | 225 | 0.0 | 0.0 | 0.00 | 0.00 | 0.00 | 35 | 1009.8 |
| 20260502162938 | 27 | 135 | 0.0 | 3.2 | 0.00 | 0.00 | 0.00 | 25 | 1010.3 |
| 20260502161438 | 28 | 247 | 0.0 | 3.2 | 0.00 | 0.00 | 0.00 | 24 | 1010.5 |
| 20260502151439 | 30 | 247 | 1.6 | 12.9 | 0.00 | 0.00 | 0.00 | 22 | 1011.3 |
| 20260502122939 | 29 | 292 | 8.0 | 8.0 | 0.00 | 0.00 | 0.00 | 23 | 1013.3 |
| 20260502121439 | 30 | 202 | 0.0 | 6.4 | 0.00 | 0.00 | 0.00 | 23 | 1013.4 |
| 20260502114439 | 30 | 270 | 1.6 | 6.4 | 0.00 | 0.00 | 0.00 | 21 | 1013.8 |
| 20260502112939 | 30 | 292 | 9.7 | 9.7 | 0.00 | 0.00 | 0.00 | 22 | 1014.0 |
| 20260502111439 | 30 | 247 | 0.0 | 1.6 | 0.00 | 0.00 | 0.00 | 22 | 1014.1 |
| 20260502105939 | 31 | 247 | 0.0 | 4.8 | 0.00 | 0.00 | 0.00 | 22 | 1014.2 |
| 20260502104439 | 30 | 270 | 0.0 | 4.8 | 0.00 | 0.00 | 0.00 | 22 | 1014.4 |
| 20260502102939 | 30 | 247 | 4.8 | 4.8 | 0.00 | 0.00 | 0.00 | 22 | 1014.5 |
| 20260502101439 | 30 | 225 | 0.0 | 0.0 | 0.00 | 0.00 | 0.00 | 23 | 1014.7 |
| 20260502091439 | 28 | 225 | 9.7 | 9.7 | 0.00 | 0.00 | 0.00 | 26 | 1015.1 |
| 20260502071439 | 25 | 270 | 1.6 | 8.0 | 0.00 | 0.00 | 0.00 | 33 | 1015.8 |
| 20260502065939 | 23 | 225 | 6.4 | 6.4 | 0.00 | 0.00 | 0.00 | 35 | 1015.7 |
| 20260502064439 | 25 | 247 | 3.2 | 6.4 | 0.00 | 0.00 | 0.00 | 35 | 1015.6 |
| 20260502062939 | 23 | 247 | 1.6 | 1.6 | 0.00 | 0.00 | 0.00 | 38 | 1015.6 |
| 20260502061334 | 20 | 225 | 1.6 | 4.8 | 0.00 | 0.00 | 0.00 | 42 | 1015.7 |
| 20260502055834 | 20 | 247 | 6.4 | 6.4 | 0.00 | 0.00 | 0.00 | 45 | 1015.8 |
| 20260502054334 | 18 | 225 | 0.0 | 0.0 | 0.00 | 0.00 | 0.00 | 49 | 1015.7 |
| 20260502052834 | 15 | 225 | 0.0 | 0.0 | 0.00 | 0.00 | 0.00 | 60 | 1015.9 |
| 20260502051334 | 12 | 225 | 0.0 | 3.2 | 0.00 | 0.00 | 0.00 | 65 | 1015.8 |
| 20260502045834 | 11 | 247 | 3.2 | 3.2 | 0.00 | 0.00 | 0.00 | 65 | 1015.9 |
| 20260502044334 | 15 | 270 | 0.0 | 0.0 | 0.00 | 0.00 | 0.00 | 65 | 1015.9 |
| 20260502042834 | 8 | 270 | 0.0 | 0.0 | 0.00 | 0.00 | 0.00 | 83 | 1015.8 |
| 20260502041334 | 5 | 270 | 0.0 | 0.0 | 0.00 | 0.00 | 0.00 | 86 | 1015.9 |
| 20260502035834 | 4 | 270 | 0.0 | 0.0 | 0.00 | 0.00 | 0.00 | 86 | 1015.8 |